TimeAKST,TemperatureF,Dew PointF,Humidity,Sea Level PressureIn,VisibilityMPH,Wind Direction,Wind SpeedMPH,Gust SpeedMPH,PrecipitationIn,Events,Conditions,WindDirDegrees,DateUTC
12:54 AM,19.9,16.0,85,29.93,10.0,WNW,16.1,-,N/A,,Overcast,290,2013-01-31 09:54:00
1:54 AM,18.0,14.0,84,29.92,10.0,WNW,17.3,-,N/A,,Overcast,290,2013-01-31 10:54:00
2:54 AM,18.0,15.1,88,29.91,10.0,WNW,17.3,-,N/A,,Overcast,290,2013-01-31 11:54:00
3:54 AM,18.0,15.1,88,29.89,10.0,WNW,17.3,-,N/A,,Overcast,290,2013-01-31 12:54:00
4:54 AM,18.0,15.1,88,29.90,10.0,WNW,17.3,-,N/A,,Overcast,290,2013-01-31 13:54:00
5:54 AM,19.9,16.0,85,29.90,10.0,WNW,15.0,-,N/A,,Overcast,290,2013-01-31 14:54:00
6:54 AM,19.0,16.0,88,29.91,10.0,WNW,12.7,-,N/A,,Overcast,290,2013-01-31 15:54:00
7:54 AM,21.9,19.0,89,29.91,10.0,Calm,Calm,-,N/A,,Overcast,0,2013-01-31 16:54:00
8:54 AM,21.0,18.0,88,29.92,10.0,West,12.7,-,N/A,,Overcast,280,2013-01-31 17:54:00
9:54 AM,19.9,17.1,89,29.94,10.0,WNW,11.5,-,N/A,,Overcast,290,2013-01-31 18:54:00
10:54 AM,21.9,18.0,85,29.95,10.0,WNW,8.1,-,N/A,,Overcast,290,2013-01-31 19:54:00
11:54 AM,26.1,21.0,81,29.97,10.0,WNW,4.6,-,N/A,,Overcast,290,2013-01-31 20:54:00
12:54 PM,26.1,21.9,84,29.97,10.0,West,3.5,-,N/A,,Overcast,270,2013-01-31 21:54:00
1:54 PM,27.0,23.0,85,29.98,3.0,Calm,Calm,-,N/A,,Overcast,0,2013-01-31 22:54:00
2:23 PM,28.4,26.6,93,29.97,6.0,ESE,3.5,-,N/A,,Overcast,110,2013-01-31 23:23:00
2:34 PM,30.2,26.6,86,29.97,5.0,ESE,4.6,-,N/A,,Overcast,120,2013-01-31 23:34:00
2:42 PM,30.2,28.4,93,29.97,4.0,SE,5.8,-,N/A,,Overcast,130,2013-01-31 23:42:00
2:54 PM,28.0,27.0,96,29.99,3.0,SSE,5.8,-,N/A,,Overcast,150,2013-01-31 23:54:00
2:57 PM,28.4,26.6,93,29.98,2.5,ESE,4.6,-,N/A,,Overcast,120,2013-01-31 23:57:00
3:07 PM,30.2,28.4,93,29.98,1.2,SE,3.5,-,0.00,Snow,Light Snow,130,2013-02-01 00:07:00
3:20 PM,30.2,28.4,93,29.98,1.2,ESE,3.5,-,0.00,,Overcast,110,2013-02-01 00:20:00
3:54 PM,30.0,30.0,100,30.00,1.5,ESE,5.8,-,0.00,,Overcast,110,2013-02-01 00:54:00
4:23 PM,28.4,28.4,100,30.00,3.0,WNW,5.8,-,N/A,,Overcast,290,2013-02-01 01:23:00
4:38 PM,30.2,28.4,93,30.01,4.0,Calm,Calm,-,N/A,,Overcast,0,2013-02-01 01:38:00
5:06 PM,30.2,28.4,93,30.00,3.0,Calm,Calm,-,N/A,,Overcast,0,2013-02-01 02:06:00
5:29 PM,28.4,28.4,100,30.01,2.0,Calm,Calm,-,N/A,,Overcast,0,2013-02-01 02:29:00
5:46 PM,28.4,28.4,100,30.01,4.0,Calm,Calm,-,N/A,,Overcast,0,2013-02-01 02:46:00
5:54 PM,28.9,28.9,100,30.01,4.0,Calm,Calm,-,N/A,,Overcast,0,2013-02-01 02:54:00
6:54 PM,28.0,27.0,96,30.03,5.0,WNW,4.6,-,N/A,,Overcast,290,2013-02-01 03:54:00
7:05 PM,28.4,26.6,93,30.02,4.0,WNW,5.8,-,N/A,,Overcast,300,2013-02-01 04:05:00
7:39 PM,28.4,28.4,100,30.03,2.5,WNW,9.2,-,N/A,,Overcast,290,2013-02-01 04:39:00
7:54 PM,28.0,27.0,96,30.05,3.0,WNW,11.5,-,N/A,,Overcast,290,2013-02-01 04:54:00
8:54 PM,28.0,27.0,96,30.05,6.0,WNW,6.9,-,0.00,,Overcast,290,2013-02-01 05:54:00
9:44 PM,28.4,28.4,100,30.06,3.0,WNW,10.4,-,0.00,Rain,Light Freezing Rain,290,2013-02-01 06:44:00
9:54 PM,28.9,28.0,96,30.07,3.0,West,6.9,-,0.00,Rain,Light Freezing Rain,280,2013-02-01 06:54:00
10:14 PM,28.4,28.4,100,30.07,4.0,West,10.4,-,0.00,,Overcast,280,2013-02-01 07:14:00
10:54 PM,28.9,28.0,96,30.09,4.0,WNW,11.5,-,0.00,,Overcast,290,2013-02-01 07:54:00
11:54 PM,28.9,28.0,96,30.11,9.0,WNW,8.1,-,N/A,,Overcast,290,2013-02-01 08:54:00